TimeCST,TemperatureF,Dew PointF,Humidity,Sea Level PressureIn,VisibilityMPH,Wind Direction,Wind SpeedMPH,Gust SpeedMPH,PrecipitationIn,Events,Conditions,WindDirDegrees,DateUTC
12:51 AM,52.0,21.9,31,30.33,10.0,NNE,11.5,-,N/A,,Clear,20,2013-03-06 06:51:00
1:51 AM,53.1,21.0,29,30.32,10.0,NNE,18.4,-,N/A,,Clear,20,2013-03-06 07:51:00
2:51 AM,51.1,21.9,32,30.31,10.0,NNE,13.8,-,N/A,,Clear,30,2013-03-06 08:51:00
3:51 AM,50.0,21.9,33,30.33,10.0,NNE,15.0,-,N/A,,Clear,30,2013-03-06 09:51:00
4:51 AM,48.0,21.0,34,30.34,10.0,NNE,13.8,-,N/A,,Clear,20,2013-03-06 10:51:00
5:51 AM,45.0,21.0,39,30.37,10.0,NNE,9.2,-,N/A,,Clear,20,2013-03-06 11:51:00
6:51 AM,43.0,21.9,43,30.38,10.0,NNE,11.5,-,N/A,,Clear,20,2013-03-06 12:51:00
7:51 AM,48.9,23.0,36,30.42,10.0,NNE,5.8,-,N/A,,Clear,20,2013-03-06 13:51:00
8:51 AM,53.1,23.0,31,30.44,10.0,NE,12.7,-,N/A,,Clear,40,2013-03-06 14:51:00
9:51 AM,57.0,24.1,28,30.44,10.0,NE,18.4,-,N/A,,Clear,40,2013-03-06 15:51:00
10:51 AM,60.1,28.0,30,30.41,10.0,NE,16.1,23.0,N/A,,Clear,50,2013-03-06 16:51:00
11:51 AM,62.1,27.0,26,30.40,10.0,NE,12.7,-,N/A,,Clear,40,2013-03-06 17:51:00
12:51 PM,64.0,28.0,26,30.37,10.0,ENE,10.4,18.4,N/A,,Clear,60,2013-03-06 18:51:00
1:51 PM,64.9,28.9,26,30.34,10.0,East,10.4,18.4,N/A,,Clear,100,2013-03-06 19:51:00
2:51 PM,64.0,35.1,34,30.30,10.0,ESE,8.1,-,N/A,,Partly Cloudy,110,2013-03-06 20:51:00
3:51 PM,64.9,34.0,32,30.28,10.0,East,12.7,-,N/A,,Clear,100,2013-03-06 21:51:00
4:51 PM,63.0,42.1,46,30.27,10.0,East,11.5,-,N/A,,Clear,90,2013-03-06 22:51:00
5:51 PM,60.1,41.0,49,30.26,10.0,East,9.2,-,N/A,,Clear,90,2013-03-06 23:51:00
6:51 PM,57.9,42.1,56,30.26,10.0,East,8.1,-,N/A,,Partly Cloudy,100,2013-03-07 00:51:00
7:51 PM,55.9,42.1,60,30.27,10.0,East,4.6,-,N/A,,Clear,100,2013-03-07 01:51:00
8:51 PM,55.9,41.0,57,30.27,10.0,Calm,Calm,-,N/A,,Clear,0,2013-03-07 02:51:00
9:51 PM,55.0,43.0,64,30.28,10.0,ENE,3.5,-,N/A,,Partly Cloudy,60,2013-03-07 03:51:00
10:51 PM,53.1,43.0,69,30.26,10.0,Calm,Calm,-,N/A,,Partly Cloudy,0,2013-03-07 04:51:00
11:51 PM,52.0,44.1,74,30.24,10.0,East,3.5,-,N/A,,Partly Cloudy,90,2013-03-07 05:51:00